BEVO 2

Last updated on Wed Jun 14 2017 00:15:07 GMT+0000 (Coordinated Universal Time)

1 41314U 98067HQ 17164.58972946 .11750698 12645-4 18149-3 0 9997 2 41314 51.6052 348.7173 0009415 280.9513 79.0457 16.47784496 78591

Satellite not in orbit